,

(GMT )
Simanggang

Weather History for WBGY - December, 2012

Change the Weather History Date:

Saturday, December 8, 2012

  Actual Average Record
Temperature  
Mean Temperature 76 °F -  
Max Temperature 80 °F - - ()
Min Temperature 73 °F - - ()
Cooling Degree Days 12    
Growing Degree Days 26 (Base 50)    
Moisture  
Dew Point 74 °F    
Average Humidity 93    
Maximum Humidity 100    
Minimum Humidity 84    
Precipitation  
Precipitation 0.00 in - - ()
Sea Level Pressure  
Sea Level Pressure 29.85 in    
Wind  
Wind Speed 1 mph ()    
Max Wind Speed 4 mph    
Max Gust Speed -    
Visibility 6.2 miles    
Events Rain    
T = Trace of Precipitation, MM = Missing Value Source: Averaged Metar Reports

Daily Weather History Graph

Daily Weather History Graph

Search for Another Location

Airport or City:

Trip Planner

Search our weather history database for the weather conditions in past years. The results will help you decide how hot, cold, wet, or windy it might be!

Date:

Astronomy

Dec. 08, 2012 Rise Set
Actual Time 6:24 AM WITA 6:27 PM WITA
Civil Twilight 6:02 AM WITA 6:50 PM WITA
Nautical Twilight 5:36 AM WITA 7:16 PM WITA
Astronomical Twilight 5:10 AM WITA 7:42 PM WITA
Moon 1:18 AM WITA (12/8) 1:40 PM WITA (12/8)
Length of Visible Light 12h 48m
Length of Day
12h 03m
Waning Crescent, 34% of the Moon is Illuminated
Dec 8
Waning Crescent
Dec 13
New
Dec 20
First Quarter
Dec 28
Full
Jan 5
Last Quarter

Hourly Weather History & Observations

Time (WITA) Temp. Heat Index Dew Point Humidity Pressure Visibility Wind Dir Wind Speed Gust Speed Precip Events Conditions
12:00 AM 75.2 °F - 73.4 °F 94% 29.89 in 6.2 mi SSW 2.3 mph - N/A   Mostly Cloudy
1:00 AM 75.2 °F - 73.4 °F 94% 29.86 in 6.2 mi SSW 2.3 mph - N/A   Mostly Cloudy
2:00 AM 75.2 °F - 73.4 °F 94% 29.83 in 6.2 mi SSW 1.2 mph - N/A Rain Light Rain
3:00 AM 73.4 °F - 71.6 °F 94% 29.83 in 6.2 mi Calm Calm - N/A Rain Light Rain
4:00 AM 73.4 °F - 71.6 °F 94% 29.83 in 6.2 mi SE 2.3 mph - N/A   Mostly Cloudy
5:00 AM 73.4 °F - 73.4 °F 100% 29.83 in 6.2 mi ESE 2.3 mph - N/A   Mostly Cloudy
6:00 AM 73.4 °F - 73.4 °F 100% 29.86 in 6.2 mi East 2.3 mph - N/A Rain Light Rain
7:00 AM 73.4 °F - 73.4 °F 100% 29.89 in 6.2 mi ESE 1.2 mph - N/A Rain Light Rain
8:00 AM 75.2 °F - 73.4 °F 94% 29.92 in 6.2 mi East 1.2 mph - N/A Rain Light Rain
9:00 AM 75.2 °F - 75.2 °F 100% 29.92 in 6.2 mi East 2.3 mph - N/A Rain Light Rain
10:00 AM 77.0 °F - 75.2 °F 94% 29.92 in 6.2 mi SE 3.5 mph - N/A Rain Light Rain
12:00 PM 78.8 °F - 75.2 °F 89% 29.92 in 6.2 mi NE 2.3 mph - N/A Rain Light Rain
1:00 PM 80.6 °F 86.2 °F 75.2 °F 84% 29.89 in 6.2 mi East 2.3 mph - N/A Rain Light Rain
2:00 PM 80.6 °F 86.2 °F 75.2 °F 84% 29.86 in 6.2 mi ESE 2.3 mph - N/A   Mostly Cloudy
3:00 PM 80.6 °F 87.1 °F 77.0 °F 89% 29.80 in 6.2 mi Calm Calm - N/A   Mostly Cloudy
4:00 PM 78.8 °F - 75.2 °F 89% 29.80 in 6.2 mi NNW 2.3 mph - N/A Rain Light Rain
5:00 PM 78.8 °F - 75.2 °F 89% 29.77 in 6.2 mi WSW 1.2 mph - N/A   Mostly Cloudy
6:00 PM 78.8 °F - 75.2 °F 89% 29.77 in 6.2 mi West 1.2 mph - N/A   Mostly Cloudy
7:00 PM 77.0 °F - 75.2 °F 94% 29.80 in 6.2 mi Calm Calm - N/A   Mostly Cloudy
8:00 PM 77.0 °F - 75.2 °F 94% 29.83 in 6.2 mi East 1.2 mph - N/A   Mostly Cloudy
9:00 PM 77.0 °F - 75.2 °F 94% 29.86 in 6.2 mi Calm Calm - N/A   Mostly Cloudy
10:00 PM 75.2 °F - 73.4 °F 94% 29.86 in 6.2 mi Calm Calm - N/A   Mostly Cloudy
11:00 PM 75.2 °F - 73.4 °F 94% 29.86 in 6.2 mi Calm Calm - N/A   Mostly Cloudy